Weather History for Tupelo, MS

Change the Weather History Date:

Saturday, July 12, 2014

  Actual Average Record
Temperature  
Mean Temperature 81 °F 82 °F  
Max Temperature 92 °F 92 °F 107 °F (1930)
Min Temperature 70 °F 71 °F 58 °F (1973)
Degree Days  
Heating Degree Days 0 0  
Month to date heating degree days 0 0  
Since 1 June heating degree days 0 0  
Since 1 July heating degree days 0 0  
Cooling Degree Days 16 17  
Month to date cooling degree days 162 193  
Year to date cooling degree days 856 865  
Since 1 June cooling degree days 582 588  
Growing Degree Days 30 (Base 50)    
Moisture  
Dew Point 69 °F    
Average Humidity 67    
Maximum Humidity 93    
Minimum Humidity 41    
Precipitation  
Precipitation 0.00 in 0.13 in 2.71 in (2012)
Month to date precipitation 0.82 1.62  
Year to date precipitation 29.33 30.74  
Snow  
Snow 0.00 in 0.00 in - ()
Month to date snowfall 0.0 0.0  
Since 1 June snowfall 0.0 0.0  
Since 1 July snowfall 0.0 0.0  
Snow Depth 0.00 in    
Sea Level Pressure  
Sea Level Pressure 30.12 in    
Wind  
Wind Speed 2 mph (NE)    
Max Wind Speed 9 mph    
Max Gust Speed 12 mph    
Visibility 8 miles    
Events      
T = Trace of Precipitation, MM = Missing Value Source: NWS Daily Summary

Daily Weather History Graph

Daily Weather History Graph

Search for Another Location

Airport:

Trip Planner

Search our weather history database for the weather conditions in past years. The results will help you decide how hot, cold, wet, or windy it might be!

Date:

Astronomy

Jul. 12, 2014 Rise Set
Actual Time 5:52 AM CDT 8:08 PM CDT
Civil Twilight 5:23 AM CDT 8:37 PM CDT
Nautical Twilight 4:48 AM CDT 9:12 PM CDT
Astronomical Twilight 4:10 AM CDT 9:50 PM CDT
Moon 8:15 PM CDT (7/12) 6:07 AM CDT (7/12)
Length of Visible Light 15h 13m
Length of Day
14h 16m
Full, 100% of the Moon is Illuminated
Jul 12
Full
Jul 18
Last Quarter
Jul 26
New
Aug 3
First Quarter
Aug 10
Full

Hourly Weather History & Observations

Time (CDT) Temp. Heat Index Dew Point Humidity Pressure Visibility Wind Dir Wind Speed Gust Speed Precip Events Conditions
12:53 AM 75.0 °F - 71.1 °F 87% 30.14 in 10.0 mi Calm Calm - N/A   Clear
1:53 AM 73.9 °F - 71.1 °F 91% 30.12 in 7.0 mi Calm Calm - N/A   Clear
2:53 AM 73.0 °F - 70.0 °F 90% 30.12 in 7.0 mi Calm Calm - N/A   Clear
3:53 AM 73.0 °F - 70.0 °F 90% 30.12 in 5.0 mi Calm Calm - N/A   Clear
4:13 AM 72.0 °F - 70.0 °F 93% 30.13 in 2.5 mi NE 3.5 mph - N/A   Clear
4:21 AM 72.0 °F - 69.1 °F 91% 30.13 in 4.0 mi NE 3.5 mph - N/A   Clear
4:53 AM 71.1 °F - 69.1 °F 93% 30.13 in 5.0 mi NE 3.5 mph - N/A   Clear
5:53 AM 71.1 °F - 69.1 °F 93% 30.14 in 2.5 mi NNE 3.5 mph - N/A   Clear
6:00 AM 72.0 °F - 70.0 °F 93% 30.15 in 5.0 mi Calm Calm - N/A   Clear
6:53 AM 73.0 °F - 70.0 °F 90% 30.14 in 6.0 mi Calm Calm - N/A   Clear
7:53 AM 75.9 °F - 70.0 °F 82% 30.16 in 10.0 mi NNE 4.6 mph - N/A   Clear
8:53 AM 81.0 °F 84.4 °F 70.0 °F 69% 30.17 in 10.0 mi ENE 4.6 mph - N/A   Clear
9:53 AM 84.9 °F 88.8 °F 69.1 °F 59% 30.17 in 10.0 mi ENE 4.6 mph - N/A   Clear
10:53 AM 87.1 °F 89.9 °F 66.9 °F 51% 30.17 in 10.0 mi Variable 5.8 mph - N/A   Clear
12:53 PM 90.0 °F 92.8 °F 66.9 °F 46% 30.14 in 10.0 mi Calm Calm - N/A   Clear
1:53 PM 90.0 °F 92.4 °F 66.0 °F 45% 30.14 in 10.0 mi Variable 5.8 mph - N/A   Scattered Clouds
2:53 PM 91.9 °F 94.5 °F 66.0 °F 42% 30.12 in 10.0 mi NNE 5.8 mph - N/A   Scattered Clouds
3:53 PM 91.9 °F 94.5 °F 66.0 °F 42% 30.10 in 10.0 mi Calm Calm - N/A   Clear
4:53 PM 91.0 °F 92.6 °F 64.0 °F 41% 30.08 in 10.0 mi NNE 4.6 mph - N/A   Clear
5:53 PM 90.0 °F 91.7 °F 64.9 °F 43% 30.07 in 10.0 mi North 4.6 mph - N/A   Clear
6:53 PM 88.0 °F 91.4 °F 68.0 °F 51% 30.06 in 10.0 mi NNE 4.6 mph - N/A   Clear
7:53 PM 87.1 °F 89.9 °F 66.9 °F 51% 30.06 in 10.0 mi Calm Calm - N/A   Clear
8:53 PM 81.0 °F 84.1 °F 69.1 °F 67% 30.07 in 10.0 mi Calm Calm - N/A   Clear
9:53 PM 78.1 °F - 71.1 °F 79% 30.09 in 10.0 mi Calm Calm - N/A   Clear
10:53 PM 77.0 °F - 72.0 °F 84% 30.09 in 8.0 mi Calm Calm - N/A   Clear
11:53 PM 75.9 °F - 72.0 °F 87% 30.09 in 7.0 mi Calm Calm - N/A   Clear